This is the latest recevied weather packets stored in our database for station/object ED4YAF-13. If no packets are shown the sender has not sent any weather packets the latest 10 day(s).
| Time | Temp. | Humidity | Pressure | Rain* | Wind** | Luminosity | Snow |
|---|---|---|---|---|---|---|---|
| 1788110976 | 22.78° C | 25% | 1011.8 hPa | - | - | - | - |
| 1788110076 | 23.33° C | 24% | 1011 hPa | - | - | - | - |
| 1788109176 | 23.33° C | 25% | 1011.2 hPa | - | - | - | - |
| 1788108275 | 24.44° C | 23% | 1010.5 hPa | - | - | - | - |
| 1788107375 | 23.89° C | 25% | 1010.7 hPa | - | - | - | - |
| 1788105567 | 25° C | 23% | 1010.3 hPa | - | - | - | - |
| 1788104667 | 24.44° C | 24% | 1010.4 hPa | - | - | - | - |
| 1788103742 | 25.56° C | 23% | 1009.8 hPa | - | - | - | - |
| 1788102835 | 25° C | 24% | 1010.4 hPa | - | - | - | - |
| 1788101909 | 25.56° C | 23% | 1009.7 hPa | - | - | - | - |
| 1788101009 | 25° C | 24% | 1010.2 hPa | - | - | - | - |
| 1788100102 | 25.56° C | 23% | 1010.2 hPa | - | - | - | - |
| 1788099202 | 25.56° C | 24% | 1010.1 hPa | - | - | - | - |
| 1788098284 | 25° C | 23% | 1010.6 hPa | - | - | - | - |
| 1788097392 | 25.56° C | 23% | 1010.5 hPa | - | - | - | - |
| 1788096457 | 25° C | 24% | 1010.8 hPa | - | - | - | - |
| 1788095557 | 25° C | 23% | 1010.9 hPa | - | - | - | - |
| 1788094657 | 25.56° C | 23% | 1010.9 hPa | - | - | - | - |
| 1788093757 | 23.89° C | 24% | 1011.8 hPa | - | - | - | - |
| 1788092861 | 23.89° C | 23% | 1011.9 hPa | - | - | - | - |
| 1788091961 | 23.89° C | 24% | 1012 hPa | - | - | - | - |
| 1788091053 | 23.89° C | 24% | 1012 hPa | - | - | - | - |
| 1788090160 | 22.78° C | 24% | 1012.8 hPa | - | - | - | - |
| 1788089260 | 23.33° C | 25% | 1012.5 hPa | - | - | - | - |
| 1788088353 | 23.33° C | 25% | 1012.7 hPa | - | - | - | - |
* Rain since midnight (hover to see other rain measurements)
** Current wind speed in m/s (hover to see current wind gust speed)